Location: ?????????
(54.7630°N, 39.4991°E)
Time: 21:00:38
(UTC+00:00)

Meteor 1-25 Rocket - Pass Details

Date: 14 April 2026
Orbit: 835 x 891 km, 81.2° (Epoch: 11 May)

Event Time Altitude Azimuth Distance (km) Brightness Sun altitude
Rises 23:00:17 0° 343° (NNW) 3,516 8.1 -22.3°
Reaches altitude 10° 23:02:48 10° 340° (NNW) 2,571 7.3 -22.2°
Maximum altitude 23:08:29 56° 264° (W) 1,054 4.4 -21.8°
Enters shadow 23:09:54 45° 218° (SW) 1,200 4.5 -21.7°
